Location: Commenchon
(49.6411°N, 3.1571°E)
Time: 08:06:29
(UTC+00:00)

NOSS 3-3 (C) - Pass Details

Date: 15 May 2026
Orbit: 697 x 1516 km, 63.4° (Epoch: 11 January)

Event Time Altitude Azimuth Distance (km) Brightness Sun altitude
Rises 20:28:45 0° 217° (SW) 3,160 6.6 -8.9°
Reaches altitude 10° 20:30:57 10° 217° (SW) 2,299 5.9 -9.2°
Maximum altitude 20:36:11 82° 130° (SE) 867 3.7 -9.8°
Drops below altitude 10° 20:42:32 10° 44° (NE) 2,763 6.4 -10.5°
Sets 20:45:24 0° 44° (NE) 3,848 7.2 -10.8°
